Change the Weather History Date:

Tuesday, April 15, 2014

  Actual Average Record
Temperature  
Mean Temperature 49 °F 40 °F  
Max Temperature 65 °F 54 °F 72 °F (1987)
Min Temperature 32 °F 26 °F 10 °F (1975)
Degree Days  
Heating Degree Days 16 25  
Month to date heating degree days 324 393  
Since 1 July heating degree days 5724 6545  
Cooling Degree Days 0 0  
Month to date cooling degree days 0 0  
Year to date cooling degree days 0 0  
Moisture  
Dew Point 23 °F    
Average Humidity 47    
Maximum Humidity 82    
Minimum Humidity 11    
Precipitation  
Precipitation 0.00 in - 1.14 in (1963)
Month to date precipitation 0.05  
Year to date precipitation 10.39  
Sea Level Pressure  
Sea Level Pressure 30.01 in    
Wind  
Wind Speed 3 mph (SSW)    
Max Wind Speed 16 mph    
Max Gust Speed 24 mph    
Visibility 10 miles    
Events      
T = Trace of Precipitation, MM = Missing Value Source: NWS Daily Summary

Daily Weather History Graph

Daily Weather History Graph

Search for Another Location

Airport or City:

Trip Planner

Search our weather history database for the weather conditions in past years. The results will help you decide how hot, cold, wet, or windy it might be!

Date:

Astronomy

Apr. 15, 2014 Rise Set
Actual Time 6:23 AM PDT 7:37 PM PDT
Civil Twilight 5:55 AM PDT 8:04 PM PDT
Nautical Twilight 5:22 AM PDT 8:37 PM PDT
Astronomical Twilight 4:48 AM PDT 9:12 PM PDT
Moon 8:23 PM PDT (4/15) 6:34 AM PDT (4/15)
Length of Visible Light 14h 09m
Length of Day
13h 13m
Full, 100% of the Moon is Illuminated
Apr 15
Full
Apr 22
Last Quarter
Apr 28
New
May 6
First Quarter
May 14
Full

Hourly Weather History & Observations

Time (PDT) Temp. Windchill Dew Point Humidity Pressure Visibility Wind Dir Wind Speed Gust Speed Precip Events Conditions
12:53 AM 39.9 °F 37.8 °F 34.0 °F 79% 30.11 in 10.0 mi SSW 3.5 mph - N/A   Clear
1:53 AM 37.9 °F - 32.0 °F 79% 30.09 in 10.0 mi Calm Calm - N/A   Clear
2:53 AM 37.0 °F - 30.0 °F 76% 30.08 in 10.0 mi Calm Calm - N/A   Clear
3:53 AM 36.0 °F 32.1 °F 30.0 °F 79% 30.05 in 10.0 mi SSW 4.6 mph - N/A   Clear
4:53 AM 37.0 °F - 30.0 °F 76% 30.04 in 10.0 mi Calm Calm - N/A   Clear
5:53 AM 35.1 °F - 28.9 °F 78% 30.04 in 10.0 mi Calm Calm - N/A   Partly Cloudy
6:53 AM 32.0 °F - 26.1 °F 79% 30.08 in 10.0 mi Calm Calm - N/A   Clear
7:53 AM 36.0 °F - 28.9 °F 76% 30.09 in 10.0 mi Calm Calm - N/A   Clear
8:53 AM 48.0 °F - 30.0 °F 50% 30.04 in 10.0 mi Calm Calm - N/A   Clear
9:53 AM 57.9 °F - 18.0 °F 21% 30.01 in 10.0 mi South 8.1 mph - N/A   Clear
10:53 AM 60.1 °F - 6.1 °F 12% 30.00 in 10.0 mi Variable 4.6 mph 24.2 mph N/A   Clear
11:53 AM 64.0 °F - 8.1 °F 11% 29.99 in 10.0 mi North - - N/A   Clear
12:53 PM 62.1 °F - 10.9 °F 13% 30.00 in 10.0 mi North - - N/A   Clear
1:53 PM 63.0 °F - 15.1 °F 16% 29.99 in 10.0 mi SSW 8.1 mph - N/A   Clear
2:53 PM 64.0 °F - 18.0 °F 17% 29.97 in 10.0 mi SSW 13.8 mph 23.0 mph N/A   Clear
3:53 PM 63.0 °F - 21.9 °F 21% 29.96 in 10.0 mi SSW 9.2 mph - N/A   Clear
4:53 PM 62.1 °F - 21.9 °F 21% 29.96 in 10.0 mi SSW 9.2 mph - N/A   Clear
5:53 PM 60.1 °F - 18.0 °F 20% 29.95 in 10.0 mi Variable 5.8 mph - N/A   Clear
6:53 PM 57.0 °F - 18.0 °F 22% 29.96 in 10.0 mi Variable 4.6 mph - N/A   Clear
7:53 PM 51.1 °F - 24.1 °F 35% 29.98 in 10.0 mi Calm Calm - N/A   Clear
8:53 PM 46.0 °F - 25.0 °F 44% 29.97 in 10.0 mi Calm Calm - N/A   Clear
9:53 PM 43.0 °F - 26.1 °F 51% 29.95 in 10.0 mi Calm Calm - N/A   Clear
10:53 PM 39.9 °F - 25.0 °F 55% 29.96 in 10.0 mi Calm Calm - N/A   Clear
11:53 PM 37.0 °F - 25.0 °F 62% 29.94 in 10.0 mi Calm Calm - N/A   Clear